TimeFJT,TemperatureF,Dew PointF,Humidity,Sea Level PressureIn,VisibilityMPH,Wind Direction,Wind SpeedMPH,Gust SpeedMPH,PrecipitationIn,Events,Conditions,WindDirDegrees,DateUTC
12:00 AM,75,73,92,29.98,12,Calm,Calm,,,,Partly Cloudy,,2012-10-09 12:00:00
12:00 AM,75.2,73.4,94,29.98,24.9,Calm,Calm,-,N/A,,Partly Cloudy,0,2012-10-09 12:00:00
1:00 AM,75.2,73.4,94,29.95,24.9,East,4.6,-,N/A,,Partly Cloudy,100,2012-10-09 13:00:00
2:00 AM,75.2,73.4,94,29.95,24.9,Calm,Calm,-,N/A,,Scattered Clouds,0,2012-10-09 14:00:00
3:00 AM,75,72,89,29.95,12,Calm,Calm,,,,Partly Cloudy,,2012-10-09 15:00:00
3:00 AM,75.2,73.4,94,29.95,24.9,Calm,Calm,-,N/A,,Scattered Clouds,0,2012-10-09 15:00:00
4:00 AM,75.2,73.4,94,29.95,24.9,Calm,Calm,-,N/A,,Scattered Clouds,0,2012-10-09 16:00:00
5:00 AM,75.2,73.4,94,29.95,24.9,ESE,5.8,-,N/A,,Mostly Cloudy,120,2012-10-09 17:00:00
6:00 AM,74,72,90,29.99,12,Calm,Calm,,,,Partly Cloudy,,2012-10-09 18:00:00
6:00 AM,75.2,73.4,94,29.98,28.0,Calm,Calm,-,N/A,,Mostly Cloudy,0,2012-10-09 18:00:00
7:00 AM,75.2,73.4,94,30.01,31.1,Calm,Calm,-,N/A,,Mostly Cloudy,0,2012-10-09 19:00:00
8:00 AM,78.8,73.4,83,30.01,31.1,Calm,Calm,-,N/A,,Mostly Cloudy,0,2012-10-09 20:00:00
9:00 AM,82,74,69,30.03,31,Calm,Calm,,,,Partly Cloudy,,2012-10-09 21:00:00
9:00 AM,82.4,73.4,74,30.01,31.1,Calm,Calm,-,N/A,,Mostly Cloudy,0,2012-10-09 21:00:00
10:00 AM,82.4,73.4,74,30.01,31.1,Calm,Calm,-,N/A,,Scattered Clouds,0,2012-10-09 22:00:00
11:00 AM,84.2,75.2,74,30.01,31.1,West,6.9,-,N/A,,Scattered Clouds,270,2012-10-09 23:00:00
12:00 PM,84,74,66,29.99,31,West,4.6,,,,Partly Cloudy,270,2012-10-10 00:00:00
12:00 PM,84.2,75.2,74,29.98,31.1,West,4.6,-,N/A,,Scattered Clouds,270,2012-10-10 00:00:00
1:00 PM,87.8,77.0,70,29.95,31.1,WNW,5.8,-,N/A,,Mostly Cloudy,300,2012-10-10 01:00:00
2:00 PM,87.8,75.2,66,29.95,31.1,West,12.7,-,N/A,,Mostly Cloudy,270,2012-10-10 02:00:00
3:00 PM,87,75,60,29.94,31,West,8.1,,,,Partly Cloudy,280,2012-10-10 03:00:00
3:00 PM,87.8,75.2,66,29.92,31.1,West,9.2,-,N/A,,Scattered Clouds,270,2012-10-10 03:00:00
4:00 PM,87.8,75.2,66,29.92,31.1,WNW,10.4,-,N/A,,Scattered Clouds,290,2012-10-10 04:00:00
4:30 PM,87.8,75.2,66,29.95,31.1,WNW,11.5,-,N/A,Thunderstorm,Thunderstorm,300,2012-10-10 04:30:00
5:00 PM,84.2,77.0,79,29.95,31.1,WSW,13.8,-,N/A,Thunderstorm,Thunderstorm,240,2012-10-10 05:00:00
6:00 PM,78,73,79,30.02,12,East,9.2,,,Rain,Light Rain,80,2012-10-10 06:00:00
6:00 PM,77.0,73.4,89,30.01,24.9,East,9.2,-,N/A,Rain,Light Rain,80,2012-10-10 06:00:00
7:00 PM,75.2,73.4,94,30.04,24.9,ESE,5.8,-,N/A,,Mostly Cloudy,120,2012-10-10 07:00:00
8:00 PM,75.2,73.4,94,30.04,24.9,ESE,5.8,-,N/A,,Mostly Cloudy,120,2012-10-10 08:00:00
9:00 PM,75,72,89,30.06,12,ESE,5.8,,,,Partly Cloudy,110,2012-10-10 09:00:00
9:00 PM,75.2,73.4,94,30.04,24.9,ESE,5.8,-,N/A,,Mostly Cloudy,110,2012-10-10 09:00:00
10:00 PM,75.2,73.4,94,30.06,24.9,Calm,Calm,-,N/A,,Mostly Cloudy,0,2012-10-10 10:00:00
11:00 PM,75.2,73.4,94,30.04,24.9,Calm,Calm,-,N/A,,Scattered Clouds,0,2012-10-10 11:00:00